Volver al catálogo

OPS 4682 DEB

ActivoPO
NORAD 38408·DEBRIS·🇺🇸 United States

Lanzado Apr 3, 1965 desde Vandenberg Space Force Base

Loading…

Próximos Pases (próximas 24 horas)

TLE

ActualizadoSource: Space-Track

Época: Sep 14, 2026, 13:52 UTC

1 38408U 65027DM  26257.57789927 -.00000028  00000-0 -11164-3 0  9997
2 38408  90.2946  17.8188 0041596 288.9557  70.7061 13.02208934616845

Sigue OPS 4682 DEB en tiempo real con AllMySat

Download on the App Store